Regional Weather Roundup
Issued by NWS Albany, NY

Home | Current Version | Previous Version | Text Only | Print | Product List | Glossary On
Versions: 1 2 3 4 5 6 7 8 9 10 11 12 13 14 15 16 17 18 19 20 21 22 23 24 25 26 27 28 29 30 31 32 33 34 35 36 37 38 39 40 41 42 43 44 45 46 47 48 49 50
000
ASUS41 KALY 220610
RWRALY

NEW YORK STATE HOURLY WEATHER ROUNDUP
NATIONAL WEATHER SERVICE ALBANY NY
100 AM EST WED FEB 22 2017

NOTE: "FAIR" INDICATES FEW OR NO CLOUDS BELOW 12,000 FEET WITH NO
SIGNIFICANT WEATHER AND/OR NO OBSTRUCTIONS TO VISIBILITY.

NYZ032-033-038>043-046>054-057>066-NYZ062>081-082-084-220700-
EAST


CITY           SKY/WX    TMP DP  RH WIND       PRES   REMARKS
ALBANY         CLOUDY    39  30  70 S6        30.05F WCI  35
GLENS FALLS    CLOUDY    40  27  59 S3        30.03F
POUGHKEEPSIE   NOT AVBL
NEWBURGH       CLOUDY    41  32  70 CALM      30.07F
NEW YORK CITY  CLOUDY    45  33  63 SW12G18   30.09
CENTRAL PARK   CLOUDY    43  33  68 VRB7      30.12F
$$

NYZ005>009-017-018-044>046-055-056-220700-
CENTRAL


CITY           SKY/WX    TMP DP  RH WIND       PRES   REMARKS
FULTON         CLOUDY    41  32  70 CALM      29.97S
SYRACUSE       CLOUDY    40  34  79 E5        29.97F
ROME           CLOUDY    40  31  70 E7        30.00F
ELMIRA         NOT AVBL
BINGHAMTON     NOT AVBL
$$

NYZ026>034-041>043-087-220700-
NORTH


CITY           SKY/WX    TMP DP  RH WIND       PRES   REMARKS
WATERTOWN      CLOUDY    45  33  63 S6        29.94S
FORT DRUM      NOT AVBL
OGDENSBURG     MOCLDY    41  32  69 SW7       29.94S
MASSENA        CLOUDY    34  32  92 CALM      29.95S
SARANAC LAKE   CLOUDY    38  29  70 SW9       29.92F WCI  31
PLATTSBURGH    NOT AVBL
$$

NYZ001>004-010>016-019>021-085-220700-
WEST


CITY           SKY/WX    TMP DP  RH WIND       PRES   REMARKS
NIAGARA FALLS  CLOUDY    43  38  82 CALM      29.94F HAZE
BUFFALO        CLOUDY    46  43  89 CALM      29.94S FOG
DUNKIRK        MOCLDY    47  40  76 E3        29.93F
JAMESTOWN      CLOUDY    46  30  53 S5        29.95S
WELLSVILLE     CLOUDY    47  31  53 CALM      29.97F
ROCHESTER      CLOUDY    49  33  54 W3        29.95S
PENN YAN       CLOUDY    47  28  47 S10       29.95F
$$

             KEY
       WCI = WIND CHILL INDEX
       VSB = VISIBILITY
       HX  = HEAT INDEX
$$



USA.gov is the U.S. government's official web portal to all federal, state and local government web resources and services.